Showing default

NAVSTAR 85 (USA 581), 67588

Orbit data source: Space-Track

NAVSTAR 85 (USA 581), 67588 is a payload satellite owned by USSF SSC (US) in MEO that was launched on Wed, 28 Jan 2026 UTC via an FALCON 9 launch vehicle from the Air Force Eastern Test Range (AFETR). Payload-class satellites include a variety of spacecraft equipped with specific instruments for various scientific and technological missions. These include communications satellites like Starlink; space stations such as the ISS; scientific satellites like the Hubble; Earth observation satellites from companies like Planet Labs, Umbra, and HawkEye 360; GPS; miniature CubeSats for education and research; and military/defense satellites.

Loading next visibility...
Identifier
67588, 2026-017A
Orbit
MEO
Country
Flag of USUS
Related business
Manufacturer
LMSS Denver
Mission
Operational spacecraft
Bus & Motor
A2100, LEROS-1C?
Mass
4,352 kg wet, ~2,160 kg dry
Launch date (UTC)
2026-01-28 (2 months ago)
Launch vehicle
FALCON 9
Launch site
Air Force Eastern Test Range (AFETR)
Object type
Payload
Rocket body
Debris
Shape & HBR
Unknown shape, 14.5 m
Radar Cross Section
RCS unknown

Expand to show TLE details & history
Last TLE update: 1 day ago

TLE from 1 day ago
0 NAVSTAR 85 (USA 581)
1 67588U 26017A   26094.40943240  .00000001  00000-0  00000-0 0  9998
2 67588  55.0405  91.7145 0024436 250.4586 109.2865  2.00553521430136
Epoch: 2026-04-04T09:49Z
TLE epoch observation values (Epoch: 2026-04-04T09:49:34.959Z)
Latitude
-0.00001°
Longitude
111.57402°
Altitude
20,204.898 km
Speed
3.871 km/s
True Right ascension
06h 06m 47s
True Declination
0° 00' 00"
Sunlit
Object was in daylight at epoch
Visualization orbit readout
Latitude
Unknown
Longitude
Unknown
Altitude
Unknown
Speed
Unknown
Apparent Right ascension
Unknown
Apparent Declination
Unknown
Sunlit
N/A
Visualization observer readout
Local Sidereal Time
17:22:37
Azimuth
Unknown
Elevation
Unknown
Doppler factor
Unknown
Orbital elements
Apogee altitude
20,248.01 km
Perigee altitude
20,118.2 km
Semi-major axis
26,561.242 km
Eccentricity
0.00244
Inclination
55.0405°
RAAN
91.7145°
Arg. of periapsis
250.4586°
True anomaly
109.55053°
Mean anomaly
109.2865°
Eccentric anomaly
109.41854°
Mean motion
0.50138 °/min
Orbital period
718.01 mins
BSTAR
0
Loading maneuver chart data...
Computing Atmospheric mass density...
Loading historical data...
Loading historical data...
Loading historical data...
Loading historical data...
Loading historical data...
Loading historical data...
Loading historical data...
Other satellites on launch #17 in the year 2026 (2026-01-28 UTC)

Documentation

Showing up to 5 results
|